Tracking 30923 objects as of 1-Jul-2025
HD Live streaming from Space Station
objects crossing your sky now

STARLINK-30245

Track STARLINK-30245 now!
10-day predictions
STARLINK-30245 is classified as:


NORAD ID: 57612
Int'l Code: 2023-119L
Perigee: 565.3 km
Apogee: 567.1 km
Inclination: 43.0 °
Period: 95.8 minutes
Semi major axis: 6937 km
RCS: Unknown
Launch date: August 11, 2023
Source: United States (US)
Launch site: AIR FORCE EASTERN TEST RANGE (AFETR)
Your satellite tracking list
STARLINK-1292
Track 1 satellite(s)




NASA's NSSDC Master Catalog

Two Line Element Set (TLE):
1 57612U 23119L   25181.57894528  .00000640  00000-0  62457-4 0  9990
2 57612  43.0039  11.3608 0001294 256.8611 103.2087 15.02534547105166
Source of the keplerian elements: AFSPC